Hourly Data Report for October 28, 2019

SAINT JOHN A
NEW BRUNSWICK
Current Station Operator: NAVCAN

45°18'58.000" N
65°53'24.000" W
108.80 m
8104901
71609
YSJ

Download Data

Hourly Data (October 2019)
Hourly Data Report for October 28, 2019
TIME
LST
Temp Definition
°C
Dew Point Definition
°C
Rel Hum Definition
%
Precip. Amount Definition
mm

Wind Dir Definition
10's deg

Wind Spd Definition
km/h
Visibility Definition
km
Stn Press Definition
kPa
Hmdx Definition


Wind Chill Definition


Weather Definition


00:00 3.9 1.9 87   14 17 12.9 100.58     Rain
01:00 3.8 2.5 91   12 13 19.3 100.47     Rain
02:00 4.1 3.3 95   12 9 9.7 100.51     Rain, Fog
03:00 4.1 3.6 97   2 6 9.7 100.56     Rain, Fog
04:00 4.3 4.0 98   7 7 12.9 100.56     Rain
05:00 4.7 3.9 94   9 11 12.9 100.59     Rain
06:00 4.7 4.0 95   3 10 24.1 100.68     LegendNANA
07:00 4.4 4.0 97   2 12 24.1 100.74     LegendNANA
08:00 5.0 4.4 96   3 12 24.1 100.88     Mostly Cloudy
09:00 5.0 4.0 93   2 13 24.1 100.98     LegendNANA
10:00 5.8 3.1 82   7 11 24.1 101.04     LegendNANA
11:00 8.3 3.0 69   8 16 24.1 101.05     Mainly Clear
12:00 9.7 3.8 67   10 12 24.1 101.04     LegendNANA
13:00 8.9 2.8 65   4 7 24.1 101.09     LegendNANA
14:00 9.9 3.2 63   2 16 24.1 101.05     Mainly Clear
15:00 10.0 2.8 61   3 7 24.1 101.09     LegendNANA
16:00 10.0 2.4 59   35 7 24.1 101.15     LegendNANA
17:00 8.1 3.0 70   16 4 24.1 101.25     Mainly Clear
18:00 4.1 2.8 91   36 2 24.1 101.32     LegendNANA
19:00 1.8 1.3 96   4 4 24.1 101.40     LegendNANA
20:00 0.8 0.5 98   5 4 24.1 101.41     Clear
21:00 0.4 0.1 98   36 2 24.1 101.44     LegendNANA
22:00 -0.5 -0.8 98   36 3 24.1 101.48   -1 LegendNANA
23:00 -0.4 -0.7 98   2 3 24.1 101.50   -1 Clear

Notes on Data Quality.

Legend

  • E = Estimated
  • M = Missing
  • NA = Not Available*
  • [empty] = Indicates an unobserved value
Date modified: